Погода в Славковичах

Россия / Псковская область     57°38′40″N   29°03′39″E
темп.,
°C
ветер,
м/с
пор.,
м/с
влажн.,
%
обл.,
%
осадки,
мм/ч
давл.,
гПа
погр.,
м
5 марта, пт
пт500:00−4зсз268021 0.0 1008373
03:00−3з248127 0.0 1008330
06:00−3сз238193 0.1 1008478
09:00−4с368496 0.9 1010676
12:00−3сз4560100 0.3 10121122
15:00−2сз4656100 1.3 10141237
18:00−3сз3655100 0.5 10151205
21:00−4зсз276054 0.5 1017570
6 марта, сб
сб600:00−5зсз26690 0.0 1018457
03:00−5зсз27760 0.0 1019376
06:00−6зсз26840 0.0 1018243
09:00−6з36820 0.0 1019306
12:00−2зюз47583 0.0 1018917
15:00−1зюз6104735 0.0 10141369
18:00−1юз71465100 0.2 10101487
21:000зюз71756100 0.5 10051562
7 марта, вс
вс700:000зюз71666100 0.0 10001322
03:000зюз71395100 1.3 9961049
06:00−3з4882100 2.4 992969
09:00−5зсз71451100 4.4 9942207
12:00−3з7166160 0.3 9941966
15:00−2зсз7135980 1.6 9921855
18:00−4зюз51193100 0.8 993853
21:00−7ссз81466100 2.9 9971596
8 марта, пн
пн800:00−8ссз5117993 0.0 1001877
03:00−8зсз4108288 0.0 1004747
06:00−8сз41083100 0.1 1005862
09:00−9ссз5979100 0.1 1008789
12:00−8ссз4873100 0.0 1010813
15:00−6ссз5868100 0.0 10131009
18:00−7ссз486571 0.0 10141033
21:00−10ссз3107935 0.0 1017587
9 марта, вт
вт900:00−12сз268555 0.0 1018367
03:00−12зсз258459 0.0 1018226
06:00−10юз248293 0.0 1017239
09:00−8юз498096 0.4 1016470
12:00−2з61258100 0.0 10141636
15:00−2зсз61272100 0.1 10131356
18:00−2зсз41176100 0.1 10121200
21:00−3зсз41092100 0.5 1014745